This demonstration page uses our WeatherBlox Daily Observations layout. Learn more.

Hourly Observations for March 28, 2019

Temp ( °F °C ) Dew Point ( °F °C ) Humidity (%) Winds ( mph kmh ) Pressure ( in mb ) Visibility ( mi km ) Precip ( " mm )
12:15 am 00:15 Clear 51 10.5 43 6.1 74 74 NE 12 19 30 1016 10 16.09344 0 0
12:35 am 00:35 Clear 51 10.5 43 6 74 74 NE 12 19 29.97 1015 10 16.09344 0 0
12:55 am 00:55 Clear 51 10.5 42 5.7 72 72 NE 13 20 29.97 1015 10 16.09344 0 0
1:15 am 01:15 Partly Cloudy 51 10.3 41 5.2 71 71 NE 10 17 30 1016 10 16.09344 0 0
1:35 am 01:35 Clear 50 10.1 40 4.4 68 68 NNE 9 15 30.06 1018 10 16.09344 0 0
1:55 am 01:55 Partly Cloudy 50 10 39 4 67 67 E 12 19 30 1016 10 16.09344 0 0
2:15 am 02:15 Partly Cloudy 49 9.6 38 3.5 66 66 E 15 24 30 1016 10 16.09344 0 0
2:35 am 02:35 Partly Cloudy 49 9.5 37 3 64 64 E 7 11 30.03 1017 10 16.09344 0 0
2:55 am 02:55 Clear 48 9 36 2.2 63 63 ENE 12 19 30.03 1017 10 16.09344 0 0
3:15 am 03:15 Clear 47 8.5 36 2 64 64 ENE 10 17 30.03 1017 10 16.09344 0 0
3:35 am 03:35 Clear 47 8.2 36 2.1 66 66 NE 13 20 30 1016 10 16.09344 0 0
3:55 am 03:55 Clear 46 7.9 35 1.8 66 66 ENE 14 22 30 1016 10 16.09344 0 0
4:15 am 04:15 Clear 46 7.8 35 1.8 66 66 NE 15 24 30 1016 10 16.09344 0 0
4:35 am 04:35 Clear 46 7.6 35 1.7 67 67 NNE 14 22 30 1016 10 16.09344 0 0
4:55 am 04:55 Partly Cloudy 46 7.7 35 1.7 66 66 ENE 16 26 30 1016 10 16.09344 0 0
5:15 am 05:15 Clear with Nearby Thunderstorms 46 7.7 35 1.7 66 66 ENE 17 28 29.97 1015 10 16.09344 0 0
5:35 am 05:35 Partly Cloudy 46 7.8 35 1.6 65 65 ENE 5 7 30 1016 10 16.09344 0 0
5:55 am 05:55 Mostly Cloudy 46 7.8 36 2 67 67 ENE 15 24 30 1016 10 16.09344 0 0
6:15 am 06:15 Partly Cloudy 46 7.6 37 2.5 70 70 ENE 12 19 30 1016 10 16.09344 0 0
6:35 am 06:35 Clear 46 7.5 37 2.7 72 72 ENE 16 26 30 1016 10 16.09344 0 0
6:55 am 06:55 Partly Cloudy 45 7.4 37 2.8 73 73 ENE 17 28 29.97 1015 10 16.09344 0 0
7:15 am 07:15 Mostly Cloudy 45 7.1 37 2.6 73 73 NE 20 31 29.97 1015 10 16.09344 0 0
7:35 am 07:35 Partly Cloudy 44 6.6 37 2.8 77 77 E 23 37 29.94 1014 10 16.09344 0 0
7:55 am 07:55 Sunny with Nearby Thunderstorms 43 6.3 37 2.7 78 78 NNE 13 20 29.97 1015 10 16.09344 0 0
8:15 am 08:15 Partly Cloudy with Nearby Thunderstorms 43 6.2 37 2.7 79 79 NNE 9 15 30.06 1018 10 16.09344 0 0
8:35 am 08:35 Mostly Cloudy 43 6.2 37 2.9 80 80 E 9 15 30.09 1019 10 16.09344 0 0
8:55 am 08:55 Partly Cloudy 44 6.5 37 2.8 77 77 NE 16 26 30.06 1018 10 16.09344 0 0
9:15 am 09:15 Partly Cloudy 44 6.8 37 3 77 77 NE 12 19 30.09 1019 10 16.09344 0 0
9:35 am 09:35 Cloudy with Nearby Thunderstorms 45 7 37 2.7 74 74 NE 16 26 30.09 1019 10 16.09344 0 0
9:55 am 09:55 Cloudy 45 7.2 37 2.8 74 74 NNE 16 26 30.06 1018 10 16.09344 0 0
10:15 am 10:15 Cloudy 45 7.1 37 2.7 74 74 NNE 15 24 30.06 1018 10 16.09344 0 0
10:35 am 10:35 Cloudy 45 7.1 37 2.5 73 73 NE 20 31 30.06 1018 10 16.09344 0 0
10:55 am 10:55 Cloudy 45 7 37 2.5 73 73 NNE 21 33 30.09 1019 10 16.09344 0 0
11:15 am 11:15 Cloudy 45 7.1 37 2.8 74 74 NNE 16 26 30.12 1020 10 16.09344 0 0
11:35 am 11:35 Cloudy 45 7 37 2.6 74 74 NE 22 35 30.12 1020 10 16.09344 0 0
11:55 am 11:55 Cloudy 45 7 37 2.6 74 74 NE 21 33 30.12 1020 10 16.09344 0 0
1:35 pm 13:35 Sunny 45 7.2 35 1.9 69 69 NE 18 30 30.12 1020 10 16.09344 0 0
1:55 pm 13:55 Cloudy 46 7.7 36 2 68 68 NE 18 30 30.09 1019 10 16.09344 0 0
2:15 pm 14:15 Cloudy 47 8.3 36 2 65 65 NE 17 28 30.09 1019 10 16.09344 0 0
2:35 pm 14:35 Cloudy 47 8.3 35 1.9 64 64 NE 16 26 30.06 1018 10 16.09344 0 0
2:55 pm 14:55 Cloudy 47 8.5 36 2 64 64 NE 14 22 30.09 1019 10 16.09344 0 0
3:15 pm 15:15 Cloudy 47 8.5 35 1.7 63 63 NNE 18 30 30.09 1019 10 16.09344 0 0
3:35 pm 15:35 Cloudy 47 8.5 35 1.7 63 63 NE 18 30 30.09 1019 10 16.09344 0 0
3:55 pm 15:55 Cloudy 47 8.1 35 1.7 64 64 NE 15 24 30.09 1019 10 16.09344 0 0
4:15 pm 16:15 Cloudy 47 8.2 35 1.4 63 63 ENE 17 28 30.09 1019 10 16.09344 0 0
4:35 pm 16:35 Cloudy 47 8.4 35 1.5 62 62 NE 16 26 30.09 1019 10 16.09344 0 0
4:55 pm 16:55 Cloudy 47 8.5 35 1.5 62 62 NE 16 26 30.09 1019 10 16.09344 0 0
5:15 pm 17:15 Cloudy 47 8.6 35 1.4 61 61 NE 16 26 30.12 1020 10 16.09344 0 0
5:35 pm 17:35 Cloudy 47 8.6 33 0.7 58 58 NE 18 30 30.12 1020 10 16.09344 0 0
5:55 pm 17:55 Cloudy 48 8.7 33 0.5 57 57 NE 15 24 30.12 1020 10 16.09344 0 0
6:15 pm 18:15 Cloudy 48 8.8 32 0.2 55 55 NE 14 22 30.12 1020 10 16.09344 0 0
6:35 pm 18:35 Cloudy 48 8.8 33 0.3 56 56 ENE 13 20 30.12 1020 10 16.09344 0 0
6:55 pm 18:55 Cloudy 48 8.8 33 0.8 58 58 NE 12 19 30.12 1020 10 16.09344 0 0
7:15 pm 19:15 Cloudy 48 8.7 34 1.1 59 59 NE 12 19 30.12 1020 10 16.09344 0 0
7:35 pm 19:35 Cloudy 47 8.6 34 1.1 60 60 NE 10 17 30.12 1020 10 16.09344 0 0
7:55 pm 19:55 Cloudy 47 8.5 34 1.2 60 60 NE 10 17 30.12 1020 10 16.09344 0 0
8:15 pm 20:15 Cloudy 47 8.2 35 1.4 63 63 NE 10 17 30.12 1020 10 16.09344 0 0
8:35 pm 20:35 Cloudy 47 8.1 35 1.5 63 63 NE 10 17 30.12 1020 10 16.09344 0 0
8:55 pm 20:55 Cloudy 47 8.1 35 1.6 64 64 ENE 9 15 30.12 1020 10 16.09344 0 0
9:15 pm 21:15 Cloudy 46 8 35 1.8 65 65 NE 9 15 30.12 1020 10 16.09344 0 0
9:35 pm 21:35 Cloudy 46 8 36 2 66 66 ENE 10 17 30.12 1020 10 16.09344 0 0
9:55 pm 21:55 Cloudy 46 8 35 1.8 65 65 ENE 10 17 30.12 1020 10 16.09344 0 0
10:15 pm 22:15 Cloudy 46 7.8 35 1.7 66 66 ENE 12 19 30.18 1022 10 16.09344 0 0
10:35 pm 22:35 Cloudy 46 7.7 35 1.9 67 67 NE 12 19 30.18 1022 10 16.09344 0 0
10:55 pm 22:55 Cloudy 46 7.5 35 1.9 68 68 ENE 13 20 30.18 1022 10 16.09344 0 0
11:15 pm 23:15 Cloudy 45 7.3 35 1.4 66 66 ENE 13 20 30.18 1022 10 16.09344 0 0
11:35 pm 23:35 Cloudy 45 7.2 35 1.5 67 67 ENE 12 19 30.18 1022 10 16.09344 0 0
11:55 pm 23:55 Cloudy 45 7 34 1.3 67 67 ENE 12 19 30.15 1021 10 16.09344 0 0

Powered by AerisWeather